Regional Weather Roundup
Issued by NWS

Home | Current Version | Previous Version | Graphics & Text | Print | Product List | Glossary On
Versions: 1 2 3 4 5 6 7 8 9 10 11 12 13 14 15 16 17 18 19 20 21 22 23 24 25 26 27 28 29 30 31 32 33 34 35 36 37 38 39 40 41 42 43 44 45 46 47 48 49 50
000
ASUS45 KCYS 212010
RWRWY

WYOMING REGIONAL WEATHER ROUNDUP
NATIONAL WEATHER SERVICE CHEYENNE WY
200 PM MDT THU AUG 21 2014

NOTE:  "FAIR" INDICATES FEW OR NO CLOUDS BELOW 12,000 FEET
WITH NO SIGNIFICANT WEATHER AND/OR OBSTRUCTIONS TO VISIBILITY.

WYZ001-212100-
YELLOWSTONE NATIONAL PARK

CITY           SKY/WX    TMP DP  RH WIND       PRES   REMARKS
LK YELLOWSTONE   N/A     49  45  86 VRB6      30.25R
W YELLOWSTONE  NOT AVBL

$$
WYZ002>013-054>058-071-098>099-212100-
NORTHERN WYOMING

CITY           SKY/WX    TMP DP  RH WIND       PRES   REMARKS
JACKSON        CLOUDY    57  52  82 S7        30.19S
CODY           CLOUDY    64  52  63 NE6       30.08F
GREYBULL       CLOUDY    67  54  63 NW15      30.02S
WORLAND        CLOUDY    74  49  41 N9        30.00F
SHERIDAN       CLOUDY    72  50  45 W6        30.02S
BUFFALO        MOSUNNY   69  51  52 VRB3      30.07S
GILLETTE       SUNNY     78  51  38 VRB3      30.00F
HULETT         MOCLDY    79  50  36 MISG      30.01
NEWCASTLE      FAIR      81  43  26 MISG      29.98

$$
WYZ014>020-022>026-101>103-212100-
CENTRAL WYOMING

CITY           SKY/WX    TMP DP  RH WIND       PRES   REMARKS
BIG PINEY      CLOUDY    61  45  55 W16       30.23R
PINEDALE       RAIN      55  46  71 S3        30.23R
DUBOIS         CLOUDY    57  41  54 W14G20    30.19R
LANDER         PTSUNNY   76  40  27 W15G23    30.04S
RIVERTON       CLOUDY    75  41  29 W7G16     30.05R
CASPER         MOSUNNY   81  40  23 SW18G32   30.06F
DOUGLAS        SUNNY     84  41  21 W18G30    30.05S

$$
WYZ021-027>030-104>119-212100-
SOUTHERN WYOMING

CITY           SKY/WX    TMP DP  RH WIND       PRES   REMARKS
EVANSTON       CLOUDY    63  44  50 W18       30.25S
KEMMERER       MOCLDY    61  46  59 W21       30.25S
FORT BRIDGER   FAIR      66  48  51 W25G35    30.27R
ROCK SPRINGS   MOSUNNY   69  41  36 W25G31    30.20S
DIXON          FAIR      72  46  40 W14       30.22F
RAWLINS        CLOUDY    68  44  42 W13       30.19S
SARATOGA       MOCLDY    70  45  40 MISG      30.23S
LARAMIE        PTSUNNY   72  38  29 W22G28    30.21S
CHEYENNE       PTSUNNY   80  43  26 NW12G18   30.14F
TORRINGTON     SUNNY     85  44  23 SW5       30.00F
PINE BLUFFS    FAIR      81  41  24 CALM      30.09S

$$


USA.gov is the U.S. government's official web portal to all federal, state and local government web resources and services.